{"data":{"norad_id":58555,"epoch":"2026-05-25T05:16:38.053632Z","epoch_age_seconds":62947,"freshness":"FRESH","line1":"1 58555U 23193C   26145.21988488  .00202892  00000+0  81232-2 0  9992","line2":"2 58555  97.2792 136.0917 0040770 357.1685   2.9315 15.23426014 98506","mean_motion":15.23426014,"eccentricity":0.004077,"inclination_deg":97.2792,"raan_deg":136.0917,"arg_perigee_deg":357.1685,"mean_anomaly_deg":2.9315,"bstar":0.0081232,"rev_number":9850,"period_min":94.523789587855,"perigee_km":467.49199702245,"apogee_km":523.53976260445,"semimajor_km":6873.6528798135,"source":"CELESTRAK","updated_at":"2026-05-25T13:38:00.832140Z"}}